RH
69 66 64 60 56 50 43 74 100 100 100 100 100 99 88 86 82 70 87 80 69 95 84 76 68 70 71 68 68 58 57 66 68 72 72 80 94 92 86 72 67 84 93 96 92 96 95 59 51 67 72 71 68 60
65 62 58 55 53 48 57 93 98 100 100 100 98 98 100 91 83 80 94 87 81 82 80 76 69 65 66 60 70 80 64 70 72 91 98 93 88 87 80 77 56 58 65 74 86 79 50 42 41 48 58 59 48 48
52 46 44 46 48 61 94 95 99 100 100 99 97 99 89 99 95 88 95 96 83 82 72 64 60 50 60 67 67 86 84 72 74 74 87 86 93 83 89 86 68 53 58 70 59 44 52 53 47 53 54 58 54 50
42 44 48 59 93 97 98 96 100 100 100 98 98 97 100 96 99 100 100 92 69 82 77 54 48 43 42 41 56 65 60 65 74 81 88 94 93 73 88 71 81 66 61 64 67 56 67 53 52 61 63 63 64 58
66 86 88 88 95 96 99 99 100 100 99 95 99 100 97 96 100 100 96 96 65 44 75 72 56 50 47 45 52 64 67 77 81 82 95 96 89 84 84 82 90 71 78 86 90 70 78 70 62 62 70 66 62 64
90 96 98 94 95 99 100 100 100 100 95 100 96 89 94 100 98 96 82 72 59 43 77 78 66 56 53 52 52 65 70 80 84 83 87 84 75 74 94 91 86 84 82 79 90 73 70 69 64 61 68 68 66 66
92 95 94 96 96 100 100 100 99 93 90 95 100 100 99 94 83 70 66 56 65 47 82 85 87 60 59 62 72 68 66 73 79 84 94 80 80 82 98 99 89 84 79 72 65 75 70 64 77 70 70 66 65 66
96 94 100 100 100 100 100 91 91 94 100 99 99 98 70 61 65 76 86 70 61 71 76 93 88 79 59 67 78 79 83 87 92 87 96 98 86 93 98 92 87 81 76 77 72 72 77 74 71 66 67 68 72 75
100 100 100 100 100 100 95 95 100 100 100 99 97 90 65 66 83 97 88 72 67 65 92 93 81 82 70 86 84 85 86 98 92 97 95 89 96 96 92 96 93 87 88 87 82 77 73 75 74 69 72 76 78 75
100 100 100 100 100 100 100 98 99 99 99 93 66 67 98 98 98 76 59 78 91 90 94 94 87 86 81 93 91 94 96 97 98 88 90 98 93 94 86 86 86 83 84 85 92 86 84 82 80 81 80 78 82 84
100 100 100 100 100 100 100 100 99 99 78 50 86 98 100 94 66 76 91 89 94 91 95 89 85 90 83 92 95 91 98 95 100 92 96 96 96 90 88 85 80 85 89 90 87 86 85 89 92 90 84 82 84 87
98 100 100 100 100 100 100 100 86 60 40 48 74 78 72 79 89 77 96 92 89 85 92 96 93 90 92 90 96 96 99 95 100 88 97 96 96 89 87 84 86 88 90 88 87 88 88 87 92 94 93 92 93 93
100 100 99 99 99 100 95 72 42 34 43 37 53 80 83 92 81 68 90 95 96 92 97 90 89 92 89 93 96 97 95 99 90 96 97 95 93 85 92 89 89 89 89 88 90 90 90 91 89 93 94 92 94 95
100 100 99 100 100 89 66 39 41 29 20 77 72 70 78 85 86 88 88 93 96 93 92 92 96 94 99 89 99 100 92 94 96 97 95 98 98 95 92 90 93 95 93 94 93 96 95 94 94 91 96 97 96 94
95 98 100 98 82 68 70 43 28 18 40 82 77 78 92 89 96 97 97 97 97 94 93 93 94 93 98 94 97 94 96 98 95 93 98 98 97 98 98 97 98 96 96 97 98 97 97 97 95 93 97 97 97 96
100 100 96 88 92 85 46 35 21 36 72 85 86 93 92 94 97 96 97 100 95 95 93 92 98 96 98 99 96 100 97 98 95 99 97 100 99 100 100 98 97 97 97 98 98 99 99 98 96 96 91 97 97 97
95 99 92 94 85 48 36 27 40 86 91 88 98 89 91 93 95 96 96 98 93 91 99 98 100 92 94 100 100 97 97 96 99 97 99 100 100 100 98 96 95 94 94 94 96 99 96 96 93 92 92 96 97 97
95 95 89 64 46 31 36 51 72 88 97 97 97 98 91 92 98 100 99 93 92 96 95 91 94 99 100 100 98 98 98 97 96 97 96 92 98 96 97 97 95 91 93 92 93 97 93 96 95 96 97 97 93 96
99 88 60 47 36 38 69 83 76 97 98 96 96 95 96 95 94 92 92 94 90 86 94 100 100 100 97 98 99 99 98 98 100 98 96 96 96 96 96 95 92 90 90 91 94 97 94 92 92 99 100 99 97 97
90 70 55 37 27 48 83 94 80 91 99 90 95 99 98 98 97 97 97 97 96 98 95 100 100 96 97 98 97 97 98 97 98 100 98 98 96 95 96 95 94 90 90 89 90 92 96 94 91 95 98 99 99 100
56 45 34 27 46 64 93 99 98 98 94 97 98 97 99 97 98 98 100 96 96 100 100 100 100 97 98 100 100 99 98 97 98 98 98 98 96 96 95 94 90 91 94 96 97 95 97 100 98 89 94 98 98 100
57 40 35 43 60 73 95 100 99 97 96 100 98 97 100 99 98 99 98 99 100 99 98 100 99 100 98 96 98 98 99 98 97 95 96 96 94 95 96 97 96 96 98 100 100 100 100 100 96 88 93 88 88 96
35 36 46 47 70 77 90 87 92 99 93 99 100 98 100 100 99 96 100 99 98 95 96 100 100 100 100 99 95 94 96 96 95 95 96 96 95 95 96 95 99 99 97 96 96 98 99 100 97 95 90 87 87 89
34 58 86 86 84 93 94 99 99 99 99 100 100 99 100 100 97 100 100 98 96 96 94 98 99 98 97 94 94 96 95 96 95 95 95 95 95 95 95 94 94 97 99 97 96 95 96 97 98 92 98 96 92 94
60 70 79 86 96 83 98 100 100 94 100 100 97 99 100 100 100 100 100 97 99 100 96 92 92 96 99 97 96 95 95 95 95 96 95 95 96 96 95 95 94 95 95 92 96 97 97 94 94 93 94 100 98 94
77 90 72 96 99 74 96 86 98 99 100 99 100 100 100 100 100 94 97 100 99 100 100 100 100 92 94 95 96 96 95 95 95 95 96 95 95 93 93 92 92 93 94 98 100 99 97 95 93 92 92 94 99 92
74 90 99 86 88 88 93 93 90 96 100 96 100 100 100 100 100 90 96 98 96 96 96 98 98 98 97 96 96 95 96 96 95 92 93 93 92 91 91 93 96 99 86 94 100 100 100 95 93 95 96 96 96 98
94 98 87 98 99 98 98 100 100 98 99 94 93 100 98 92 88 93 92 97 96 95 95 96 96 95 96 96 96 96 96 95 91 94 95 95 96 89 83 82 80 81 71 90 100 100 97 94 88 91 92 94 94 96
98 92 90 100 100 100 100 96 97 96 90 95 95 97 96 94 88 94 98 96 96 95 94 94 96 95 96 95 96 96 96 93 91 92 94 96 89 88 79 71 68 64 62 65 88 100 100 99 87 80 86 89 91 93
100 98 98 100 97 98 99 97 100 98 97 91 88 94 94 96 97 96 96 95 95 95 96 96 96 96 95 95 96 96 93 93 93 73 85 92 93 87 74 67 64 63 62 62 62 64 66 67 70 70 74 77 80 84
98 96 98 99 100 100 99 99 99 97 99 100 99 96 96 98 100 100 97 97 97 97 96 95 96 96 96 96 95 95 96 96 95 90 87 84 87 85 73 62 59 56 56 56 59 62 64 65 67 70 72 75 78 82
96 100 98 98 100 98 97 100 100 100 100 100 100 100 100 99 100 99 99 98 98 98 100 99 96 96 96 96 96 95 95 95 96 96 95 93 88 82 85 82 65 60 57 58 60 64 66 70 72 74 74 75 76 78
100 100 100 100 100 100 100 98 100 100 100 100 100 100 100 99 100 99 100 99 99 99 99 99 98 97 96 96 95 95 96 96 96 96 97 95 92 96 91 93 92 87 72 58 60 67 71 74 77 78 78 79 79 79
Wind_Speed
32 31 32 31 31 31 36 38 40 43 46 46 40 35 33 27 23 18 11 12 5 2 1 4 2 4 3 3 4 3 1 0 0 2 2 2 3 1 2 3 2 4 3 4 3 3 7 3 3 4 5 4 9 7
37 35 38 38 36 33 34 32 35 39 42 42 38 31 27 25 23 18 9 12 6 1 1 2 3 3 2 4 3 3 1 1 3 2 1 2 2 0 3 3 3 3 3 2 5 4 3 4 2 4 7 6 9 11
40 40 41 40 37 34 28 28 28 38 42 41 35 33 27 24 22 15 13 16 8 2 2 1 2 2 3 7 3 3 0 1 0 1 3 2 2 2 2 4 2 2 1 2 5 3 8 11 3 5 7 11 13 7
42 41 39 37 32 28 25 26 31 43 45 39 34 30 29 24 19 17 13 16 5 5 1 2 2 4 3 3 5 6 7 6 5 1 1 2 2 2 2 3 3 4 3 3 6 6 10 3 9 11 13 6 9 15
33 28 28 28 27 27 28 32 45 47 43 35 32 30 25 24 21 18 14 11 7 3 3 1 0 2 1 3 4 7 8 4 1 1 1 2 1 2 1 2 2 2 1 1 4 7 6 15 12 16 13 12 16 17
28 27 26 25 27 29 34 47 50 48 40 36 31 26 22 29 24 12 1 10 8 4 3 1 2 2 1 1 6 9 9 4 2 3 3 2 2 3 2 3 3 1 2 4 5 11 12 16 15 7 17 19 23 20
23 24 25 27 29 39 52 52 49 42 36 32 35 30 27 25 20 2 2 9 12 6 3 2 2 2 1 2 3 4 3 2 3 2 1 2 1 3 1 2 3 5 6 10 9 9 11 3 13 25 25 26 27 26
23 26 32 42 54 57 54 48 44 42 41 37 31 26 21 18 17 10 13 11 7 7 4 3 2 1 3 2 2 2 2 1 0 2 1 1 0 1 2 1 5 6 9 7 6 12 15 22 21 19 26 26 19 18
38 48 54 53 55 54 53 50 49 44 41 38 33 28 16 4 3 6 7 6 9 5 3 2 3 3 3 2 2 2 1 1 1 1 2 3 2 2 2 5 6 6 6 12 14 14 12 14 17 17 17 18 19 18
50 53 53 54 54 54 55 51 48 45 42 38 27 6 2 4 19 13 2 3 3 6 3 2 1 1 2 1 1 2 2 1 1 3 3 2 1 3 3 4 5 6 8 10 15 15 18 18 19 19 19 20 19 18
45 52 53 53 55 54 51 49 47 43 36 11 4 2 11 13 2 4 2 3 2 3 0 0 1 2 2 2 2 1 2 1 2 3 2 2 1 1 5 6 7 12 13 12 13 16 18 17 16 18 19 25 25 26
46 48 51 51 49 47 47 45 37 23 9 10 20 14 6 4 3 5 0 2 1 2 1 2 1 1 1 2 2 2 3 1 3 1 2 1 1 2 5 7 7 13 14 14 16 18 21 22 23 22 22 23 26 29
48 47 46 44 44 42 36 32 23 24 32 10 6 4 3 3 4 4 3 1 1 2 1 2 1 1 3 3 2 2 2 4 1 1 1 2 1 4 5 6 7 12 14 16 18 19 21 22 23 22 22 25 27 26
42 42 42 41 37 32 30 26 31 11 4 3 3 4 2 1 2 2 2 3 1 2 3 2 2 2 1 2 1 3 3 2 2 1 3 2 2 5 5 8 6 9 14 15 17 19 21 22 23 23 24 25 26 25
40 40 39 34 30 30 25 23 13 8 5 3 3 3 1 1 2 2 2 2 2 2 2 2 3 2 2 3 1 2 4 2 3 3 1 1 3 3 4 4 6 9 13 14 17 18 21 22 22 23 26 27 27 27
40 37 30 30 29 22 23 14 9 4 5 3 4 3 1 3 2 2 2 2 1 2 2 3 2 4 2 2 2 4 4 4 2 1 2 1 3 4 4 11 13 14 15 16 16 17 19 21 22 22 23 29 27 27
27 22 30 27 23 22 14 5 4 6 3 3 2 2 2 2 3 2 2 1 2 2 2 3 3 5 1 2 2 1 3 3 2 3 2 2 3 4 8 10 12 14 14 15 17 17 19 21 21 23 24 28 26 27
36 33 28 24 23 15 6 7 5 4 5 2 3 2 2 2 3 2 2 2 2 2 2 3 3 2 4 3 3 2 1 2 2 2 3 9 3 3 5 8 11 12 13 14 16 16 19 19 18 19 21 24 22 26
33 27 24 19 7 5 4 5 6 4 2 1 1 1 2 2 5 6 6 7 7 5 4 2 3 2 2 2 3 2 2 2 2 3 6 5 1 3 6 7 9 11 12 14 15 15 17 18 18 18 18 20 19 21
26 22 16 7 3 4 4 3 4 4 2 1 2 3 2 2 2 2 2 3 2 2 3 1 3 2 3 3 3 3 2 6 2 2 2 2 2 3 5 7 8 10 11 13 13 13 16 16 20 20 18 19 18 20
24 15 8 5 6 11 7 2 4 2 2 3 2 2 1 2 2 2 2 5 3 1 0 2 2 3 5 6 4 5 7 5 2 2 2 1 2 3 4 6 8 9 9 10 11 13 15 15 17 18 18 19 19 17
11 9 5 6 6 5 4 7 3 2 3 1 2 2 2 2 2 2 2 3 1 2 2 2 2 3 2 1 2 4 7 4 2 3 5 4 3 3 4 6 6 7 8 10 11 11 13 15 15 17 16 17 16 18
11 4 6 7 5 6 2 5 4 5 3 2 2 3 3 2 2 5 1 2 2 1 1 2 3 3 1 1 2 6 7 4 4 5 5 5 5 4 4 7 6 7 7 11 11 12 13 12 13 14 16 15 16 17
7 7 5 4 4 1 2 4 2 3 3 3 3 1 2 2 3 3 1 2 2 2 6 8 6 1 2 2 3 5 6 3 3 4 5 3 1 2 3 6 8 7 7 8 10 12 13 12 11 12 13 16 15 17
6 6 4 4 3 4 4 4 4 4 2 1 2 2 2 2 2 1 2 2 1 1 5 7 7 7 1 2 2 2 4 3 2 3 6 4 1 1 2 1 4 10 9 10 13 13 13 13 13 13 13 14 16 15
5 4 3 2 2 4 4 3 1 3 2 2 2 2 2 3 2 3 2 2 1 1 2 5 3 3 2 4 2 1 3 1 3 4 5 4 4 2 2 3 3 5 10 8 10 12 12 12 12 12 12 13 12 14
4 0 1 2 3 3 3 3 2 3 2 3 2 2 3 2 3 3 1 2 2 1 3 3 3 3 4 1 2 3 5 3 4 8 8 8 7 5 5 4 5 7 9 6 9 9 9 10 9 9 9 10 11 12
3 2 5 2 3 1 4 2 3 3 3 2 2 1 5 6 3 2 3 1 1 2 3 2 1 2 2 2 2 2 2 4 5 3 3 3 7 9 7 6 5 6 6 5 9 9 9 10 9 9 10 11 11 11
3 1 3 4 3 3 2 3 4 2 1 3 3 2 3 2 1 1 1 1 2 3 3 1 1 1 0 1 2 3 4 6 7 2 1 1 2 7 8 7 7 7 8 7 5 8 8 10 10 10 10 10 10 10
1 1 4 2 3 1 2 2 2 2 1 2 1 1 1 1 1 0 2 3 3 3 2 2 2 1 1 2 4 7 5 4 4 4 4 2 2 5 7 8 9 10 10 9 8 7 7 7 7 8 9 9 10 10
1 2 4 3 2 2 2 3 2 2 3 2 3 2 2 2 1 1 2 2 1 1 2 3 4 4 3 5 6 6 5 6 8 9 8 7 6 6 8 9 9 11 11 11 10 10 11 11 11 10 10 11 11 11
2 2 3 3 1 3 3 2 1 2 3 2 2 2 3 3 2 0 2 2 1 1 1 1 2 2 5 6 5 2 4 6 4 3 3 5 7 8 7 8 9 9 10 10 10 10 11 11 11 11 11 12 12 12
2 2 3 3 3 3 2 3 4 4 3 2 2 1 2 2 3 1 1 3 1 2 1 2 3 3 5 7 5 5 7 5 4 8 2 3 3 6 7 7 8 9 10 10 10 9 10 10 11 13 13 13 13 13
Wind_Direction
261 263 262 260 260 256 250 246 250 250 234 207 188 178 180 179 178 170 165 168 136 122 221 213 181 155 126 189 157 178 33 245 99 193 186 175 212 271 323 274 230 194 186 200 200 219 259 343 27 27 272 270 279 284
263 263 265 264 264 259 250 246 245 248 203 184 175 176 176 173 175 171 130 163 167 168 145 180 209 255 200 197 142 138 156 127 196 96 25 109 206 272 166 265 320 272 192 218 199 246 10 77 209 287 308 318 307 305
264 265 263 262 259 257 240 236 242 204 183 176 172 170 179 172 172 169 147 160 161 98 347 331 168 92 183 226 194 127 84 172 79 200 150 119 221 153 183 242 283 300 112 229 6 309 331 317 349 353 327 316 304 315
262 262 256 253 244 240 223 224 214 188 175 170 170 170 168 166 164 158 156 181 153 119 129 245 132 113 70 214 196 169 123 90 102 52 98 135 195 166 221 260 199 216 5 315 270 307 317 316 336 334 319 310 324 317
256 252 248 237 233 219 210 204 186 173 168 166 164 161 162 163 160 163 166 185 206 152 174 223 183 141 48 28 175 143 142 108 100 126 107 218 219 102 309 333 261 347 31 340 272 306 267 287 308 314 310 319 315 307
242 237 229 228 210 200 191 171 160 160 157 155 159 161 166 153 157 128 113 213 189 158 101 168 321 78 76 300 133 131 127 102 113 165 207 228 247 122 147 237 158 301 279 263 277 302 291 285 290 322 319 307 306 301
231 220 209 197 191 172 156 151 149 149 150 150 137 135 137 145 150 139 184 152 159 141 97 33 1 13 335 100 73 83 122 107 126 188 211 179 276 166 197 229 328 326 319 314 310 344 315 296 308 306 299 300 304 297
200 194 181 165 155 150 148 146 144 143 136 129 130 124 130 130 118 90 94 127 121 94 67 122 266 21 10 71 79 66 116 117 264 178 69 178 66 113 242 342 325 323 322 296 321 313 287 293 299 301 303 306 307 303
161 153 148 148 145 143 142 139 136 131 126 125 121 126 124 77 87 111 124 97 76 90 128 93 141 196 357 47 56 50 33 85 335 205 229 160 186 227 59 325 323 329 319 304 311 305 300 308 308 311 312 308 306 304
148 144 141 139 136 134 134 132 127 125 123 126 129 83 67 62 119 121 81 27 11 350 37 110 343 132 80 34 53 94 8 203 218 236 134 171 134 109 69 325 309 316 317 319 324 328 327 320 319 318 314 310 302 302
127 129 129 129 127 129 128 126 126 126 132 130 78 63 111 139 140 35 63 74 336 21 354 208 168 136 334 104 174 29 171 31 56 258 200 199 123 298 350 334 331 321 317 307 304 305 311 309 309 312 313 312 312 309
119 115 117 121 124 124 125 126 130 133 135 126 116 113 121 47 47 84 313 331 122 197 306 122 89 98 35 61 91 354 136 58 248 280 235 133 198 348 347 332 320 324 323 328 331 324 325 323 319 313 313 316 320 319
120 121 122 123 124 125 125 132 135 133 122 113 80 76 70 327 63 141 182 282 286 191 166 120 47 26 18 49 63 85 97 221 18 41 161 176 294 346 330 318 323 330 344 339 334 333 334 328 331 329 328 331 333 332
126 126 127 127 125 126 134 136 136 127 101 70 86 73 87 293 252 163 153 135 97 102 103 87 70 71 350 43 82 85 242 47 33 178 222 242 285 323 325 328 328 336 338 333 332 334 337 338 335 339 345 343 345 347
129 128 126 124 127 132 134 138 134 91 70 84 64 102 124 166 59 78 71 92 37 114 87 71 54 72 4 60 16 60 16 268 195 209 148 287 301 311 308 318 330 338 334 331 334 338 338 339 343 344 351 354 358 358
126 122 124 130 129 132 141 131 89 66 60 71 57 82 62 68 36 59 47 90 60 76 70 50 87 55 314 150 59 223 137 226 237 269 301 300 303 296 298 331 336 337 336 335 338 339 339 350 346 342 356 4 3 4
117 121 132 128 131 133 129 85 68 48 83 54 29 24 90 73 112 119 103 135 110 69 119 102 85 208 81 29 296 212 194 205 232 285 272 242 252 281 329 337 343 344 345 348 348 344 354 353 354 3 5 358 2 9
123 134 142 137 133 120 67 45 79 68 64 15 73 352 57 55 93 68 80 52 83 105 105 183 117 107 176 179 277 249 273 265 247 259 278 298 275 326 342 341 348 352 355 359 3 357 6 359 3 357 352 359 7 12
134 136 138 138 126 93 73 38 37 89 64 358 39 6 65 63 49 74 79 75 81 99 107 49 84 184 235 219 192 254 264 247 269 288 282 288 26 359 3 4 0 3 2 7 5 6 9 11 10 359 357 8 10 9
126 132 137 136 127 85 67 27 41 81 89 44 38 29 54 56 47 56 41 37 67 71 38 80 204 222 181 233 210 228 241 274 270 300 286 149 36 22 23 13 5 5 9 17 17 16 12 11 12 14 15 18 15 12
123 106 106 95 61 60 79 16 48 39 83 70 356 38 355 6 45 40 20 357 50 120 331 216 227 253 252 272 271 288 299 301 254 228 258 282 63 42 21 15 21 23 16 12 6 5 10 6 5 21 21 23 25 23
110 112 83 53 74 61 75 23 103 62 71 180 48 24 45 40 23 13 302 50 194 246 198 192 232 239 295 328 348 352 342 340 15 20 25 58 53 33 18 7 6 14 19 17 10 1 359 7 12 23 29 26 34 37
113 66 60 41 73 45 302 360 66 3 90 295 26 51 6 356 271 337 38 215 243 269 305 262 289 280 308 78 39 30 28 40 55 43 44 61 69 62 47 33 30 21 9 12 18 15 12 9 17 19 28 30 35 40
72 55 53 55 52 133 2 23 30 51 44 37 61 49 324 259 319 53 235 277 273 50 10 356 2 122 110 81 45 24 18 39 73 48 31 26 84 57 62 50 41 38 21 6 18 20 19 19 14 27 31 29 31 34
73 351 67 20 355 71 50 19 353 54 90 321 81 0 323 1 55 34 236 267 316 312 343 6 26 32 76 106 105 51 32 45 94 70 25 19 342 110 87 62 35 31 24 24 22 20 18 18 22 24 32 29 24 30
75 322 68 183 305 107 185 90 140 176 116 67 227 271 26 85 63 251 234 230 234 244 335 0 344 343 45 33 7 357 336 72 125 93 43 41 51 59 49 38 22 20 18 17 12 12 15 18 22 27 32 33 32 33
99 299 329 23 102 102 72 43 61 112 130 163 198 83 70 67 257 252 275 220 218 267 308 303 312 324 345 17 82 70 58 119 145 120 96 67 57 55 47 29 9 0 358 17 23 16 14 16 26 32 36 35 34 33
142 154 135 234 73 22 128 90 128 173 200 208 94 142 166 191 234 236 203 154 209 328 334 330 296 281 276 257 226 209 189 158 152 134 102 73 43 37 35 33 26 10 18 52 30 18 22 25 30 31 31 30 30 28
67 31 93 46 37 42 135 150 190 227 151 131 144 207 240 230 213 153 177 232 303 323 323 299 360 1 10 315 274 240 215 197 186 176 172 286 346 23 30 35 35 34 38 43 66 35 29 24 24 27 28 26 24 21
320 2 92 71 96 179 251 167 201 246 131 133 142 65 5 266 161 260 306 288 281 282 279 258 238 229 192 128 95 86 100 160 218 211 161 172 81 49 43 46 44 43 41 40 42 42 38 36 34 32 31 28 27 24
72 71 72 56 110 258 247 320 316 68 41 44 25 129 211 279 240 241 355 336 297 280 268 234 220 219 216 190 152 116 93 99 99 92 88 93 90 66 52 47 43 41 39 37 38 38 37 35 32 27 23 20 17 12
26 85 124 106 276 298 19 59 34 62 345 45 322 11 3 30 307 137 360 347 296 276 281 246 225 218 202 184 181 174 148 129 107 91 90 78 65 55 47 42 38 34 30 29 29 30 29 28 24 20 15 11 7 2
55 56 54 85 42 13 332 77 24 353 15 14 299 210 207 188 233 344 1 13 347 307 279 237 219 218 201 203 209 198 183 172 113 71 89 269 351 20 13 14 12 13 14 13 11 7 7 9 12 11 7 1 357 352